Volver al catálogo

STARLINK-11375

ActivoComunicacionesVLEO
NORAD 61577·PAYLOAD·🇺🇸 United States

Lanzado Oct 18, 2024 desde Cape Canaveral Space Force Station

Loading…

Próximos Pases (próximas 24 horas)

TLE

ActualizadoSource: CelesTrak SupGP

Época: Sep 14, 2026, 22:37 UTC

1 61577C 24187D   26257.94284722  .00106940  00000+0  88171-3 0  2572
2 61577  53.1574  83.1576 0001086  87.6055  22.2841 15.69634153    12

Sigue STARLINK-11375 en tiempo real con AllMySat

Download on the App Store